Location: Albany
(35.0170°S, 117.8920°E)
Time: 22:46:57
(UTC+08:00)

S-56A Canister/Altair - Pass Details

Date: 19 June 2021
Orbit: 632 x 2501 km, 38.9° (Epoch: 24 July)

Event Time Altitude Azimuth Distance (km) Brightness Sun altitude
Rises 17:45:59 0° 278° (W) 6,058 13.9 -8.6°
Reaches altitude 10° 17:49:51 10° 276° (W) 5,132 13.1 -9.4°
Maximum altitude 18:05:16 78° 189° (S) 2,439 10.0 -12.3°
Enters shadow 18:16:20 17° 103° (ESE) 3,940 10.5 -14.4°
